N68329 KPVU-KOGD

Flight info

Callsign N68329
Flight time 0h 41m
Altitude VFR
Route
Aircraft C152/L-DOV/C

Departure

Time 2026-04-22 02:45
Airport Provo Municipal Airport (KPVU)

Arrival

Time 2026-04-22 03:27
Airport Ogden Hinckley Airport (KOGD)
Time Latitude Longitude Altitude Speed Heading
2026-04-22 02:37 40.21711 -111.71824 4495 ft 0 kts 237°
2026-04-22 02:39 40.21711 -111.71855 4495 ft 8 kts 326°
2026-04-22 02:39 40.21788 -111.71936 4495 ft 15 kts 323°
2026-04-22 02:40 40.21904 -111.72038 4496 ft 22 kts 339°
2026-04-22 02:40 40.22066 -111.72016 4497 ft 25 kts 13°
2026-04-22 02:40 40.22276 -111.71962 4496 ft 30 kts 11°
2026-04-22 02:40 40.22459 -111.71909 4498 ft 17 kts
2026-04-22 02:41 40.22548 -111.71994 4496 ft 10 kts 327°
2026-04-22 02:41 40.22567 -111.71989 4496 ft 0 kts 343°
2026-04-22 02:42 40.22573 -111.71992 4496 ft 5 kts 335°
2026-04-22 02:43 40.22568 -111.72050 4499 ft 15 kts 199°
2026-04-22 02:43 40.22364 -111.72125 4503 ft 45 kts 208°
2026-04-22 02:43 40.22019 -111.72245 4559 ft 55 kts 204°
2026-04-22 02:43 40.21650 -111.72374 4676 ft 52 kts 205°
2026-04-22 02:44 40.21277 -111.72476 4717 ft 57 kts 202°
2026-04-22 02:44 40.20883 -111.72607 4787 ft 59 kts 201°
2026-04-22 02:44 40.20461 -111.72744 4810 ft 66 kts 201°
2026-04-22 02:44 40.20024 -111.72888 4866 ft 65 kts 203°
2026-04-22 02:45 40.19640 -111.73152 4962 ft 62 kts 231°
2026-04-22 02:45 40.19444 -111.73670 5065 ft 64 kts 257°
2026-04-22 02:45 40.19527 -111.74247 5207 ft 69 kts 288°
2026-04-22 02:45 40.19835 -111.74733 5345 ft 74 kts 321°
2026-04-22 02:46 40.20339 -111.74982 5450 ft 87 kts 340°
2026-04-22 02:46 40.20922 -111.75150 5681 ft 86 kts 346°
2026-04-22 02:46 40.21506 -111.75241 5898 ft 77 kts 351°
2026-04-22 02:46 40.22068 -111.75336 5929 ft 92 kts 345°
2026-04-22 02:47 40.22649 -111.75436 6110 ft 80 kts 353°
2026-04-22 02:47 40.23258 -111.75448 6190 ft 89 kts
2026-04-22 02:47 40.23895 -111.75384 6257 ft 98 kts
2026-04-22 02:47 40.24532 -111.75238 6477 ft 89 kts 10°
2026-04-22 02:48 40.25131 -111.74998 6599 ft 92 kts 19°
2026-04-22 02:48 40.25749 -111.74712 6682 ft 98 kts 17°
2026-04-22 02:48 40.26389 -111.74412 6806 ft 101 kts 21°
2026-04-22 02:48 40.27035 -111.74118 6999 ft 95 kts 12°
2026-04-22 02:49 40.27716 -111.73914 7116 ft 95 kts 12°
2026-04-22 02:49 40.28347 -111.73684 7228 ft 101 kts 17°
2026-04-22 02:49 40.29024 -111.73404 7368 ft 100 kts
2026-04-22 02:49 40.29694 -111.73177 7510 ft 99 kts
2026-04-22 02:50 40.30362 -111.73046 7629 ft 93 kts
2026-04-22 02:50 40.31040 -111.72977 7660 ft 104 kts 357°
2026-04-22 02:50 40.31712 -111.73046 7729 ft 96 kts 342°
2026-04-22 02:50 40.32320 -111.73352 7852 ft 89 kts 321°
2026-04-22 02:51 40.32881 -111.73768 7927 ft 93 kts 317°
2026-04-22 02:51 40.33403 -111.74256 7971 ft 93 kts 311°
2026-04-22 02:51 40.33899 -111.74803 7971 ft 93 kts 308°
2026-04-22 02:51 40.34378 -111.75374 7983 ft 91 kts 307°
2026-04-22 02:52 40.34835 -111.75947 7966 ft 91 kts 306°
2026-04-22 02:52 40.35274 -111.76527 7975 ft 89 kts 300°
2026-04-22 02:52 40.35668 -111.77141 8012 ft 87 kts 300°
2026-04-22 02:52 40.36083 -111.77722 8004 ft 92 kts 305°
2026-04-22 02:53 40.36544 -111.78297 8020 ft 92 kts 307°
2026-04-22 02:53 40.37020 -111.78863 8043 ft 91 kts 307°
2026-04-22 02:53 40.37502 -111.79412 8059 ft 93 kts 306°
2026-04-22 02:53 40.38028 -111.79968 8048 ft 97 kts 306°
2026-04-22 02:54 40.38550 -111.80488 8066 ft 94 kts 304°
2026-04-22 02:54 40.39074 -111.81026 8065 ft 96 kts 305°
2026-04-22 02:54 40.39585 -111.81560 8128 ft 92 kts 300°
2026-04-22 02:54 40.40083 -111.82129 8087 ft 103 kts 300°
2026-04-22 02:55 40.40630 -111.82802 8014 ft 109 kts 300°
2026-04-22 02:55 40.41164 -111.83472 8034 ft 103 kts 298°
2026-04-22 02:55 40.41674 -111.84126 8034 ft 100 kts 299°
2026-04-22 02:55 40.42177 -111.84765 8039 ft 100 kts 299°
2026-04-22 02:56 40.42688 -111.85364 8082 ft 95 kts 301°
2026-04-22 02:56 40.43162 -111.85973 8075 ft 94 kts 295°
2026-04-22 02:56 40.43535 -111.86613 8129 ft 87 kts 285°
2026-04-22 02:56 40.43896 -111.87284 8066 ft 98 kts 288°
2026-04-22 02:57 40.44304 -111.88062 7971 ft 104 kts 287°
2026-04-22 02:57 40.44701 -111.88789 8020 ft 95 kts 286°
2026-04-22 02:57 40.45125 -111.89536 7936 ft 104 kts 297°
2026-04-22 02:57 40.45783 -111.90059 7914 ft 122 kts 333°
2026-04-22 02:58 40.46631 -111.90192 7902 ft 125 kts 354°
2026-04-22 02:58 40.47500 -111.90107 7889 ft 124 kts 358°
2026-04-22 02:58 40.48371 -111.89993 7847 ft 126 kts 359°
2026-04-22 02:58 40.49216 -111.89901 7870 ft 116 kts 359°
2026-04-22 02:59 40.50012 -111.89800 7830 ft 118 kts
2026-04-22 02:59 40.50806 -111.89686 7847 ft 112 kts
2026-04-22 02:59 40.51591 -111.89602 7831 ft 112 kts 359°
2026-04-22 02:59 40.52322 -111.89516 7939 ft 102 kts 359°
2026-04-22 03:00 40.53040 -111.89420 8014 ft 106 kts 360°
2026-04-22 03:00 40.53794 -111.89335 8055 ft 107 kts 359°
2026-04-22 03:00 40.54541 -111.89274 8090 ft 107 kts 354°
2026-04-22 03:00 40.55293 -111.89276 8093 ft 109 kts 351°
2026-04-22 03:01 40.56016 -111.89354 8132 ft 105 kts 344°
2026-04-22 03:01 40.56791 -111.89467 8024 ft 118 kts 346°
2026-04-22 03:01 40.57610 -111.89585 8018 ft 118 kts 347°
2026-04-22 03:01 40.58419 -111.89697 8021 ft 115 kts 346°
2026-04-22 03:02 40.59201 -111.89775 8038 ft 110 kts 349°
2026-04-22 03:02 40.59966 -111.89833 8017 ft 110 kts 348°
2026-04-22 03:02 40.60723 -111.89910 7978 ft 111 kts 348°
2026-04-22 03:02 40.61486 -111.89981 7973 ft 109 kts 349°
2026-04-22 03:03 40.62251 -111.90043 7948 ft 109 kts 348°
2026-04-22 03:03 40.63007 -111.90094 7933 ft 107 kts 351°
2026-04-22 03:03 40.63747 -111.90123 7915 ft 107 kts 353°
2026-04-22 03:03 40.64504 -111.90125 7908 ft 108 kts 354°
2026-04-22 03:04 40.65251 -111.90113 7926 ft 106 kts 353°
2026-04-22 03:04 40.66010 -111.90119 7892 ft 110 kts 353°
2026-04-22 03:04 40.66767 -111.90143 7898 ft 108 kts 351°
2026-04-22 03:04 40.67510 -111.90192 7895 ft 109 kts 349°
2026-04-22 03:05 40.68275 -111.90261 7882 ft 111 kts 349°
2026-04-22 03:05 40.69051 -111.90340 7871 ft 113 kts 348°
2026-04-22 03:05 40.69828 -111.90414 7892 ft 109 kts 351°
2026-04-22 03:05 40.70575 -111.90440 7923 ft 106 kts 353°
2026-04-22 03:06 40.71309 -111.90417 7938 ft 109 kts 355°
2026-04-22 03:06 40.72056 -111.90352 7969 ft 102 kts
2026-04-22 03:06 40.72776 -111.90300 7958 ft 110 kts 355°
2026-04-22 03:06 40.73564 -111.90309 7959 ft 115 kts 353°
2026-04-22 03:07 40.74324 -111.90360 8056 ft 108 kts 345°
2026-04-22 03:07 40.75086 -111.90481 8054 ft 112 kts 344°
2026-04-22 03:07 40.75828 -111.90620 8142 ft 105 kts 341°
2026-04-22 03:07 40.76567 -111.90806 8131 ft 111 kts 340°
2026-04-22 03:08 40.77342 -111.91012 8060 ft 119 kts 340°
2026-04-22 03:08 40.78113 -111.91180 8265 ft 106 kts 341°
2026-04-22 03:08 40.78877 -111.91349 8183 ft 116 kts 345°
2026-04-22 03:08 40.79672 -111.91453 8147 ft 118 kts 352°
2026-04-22 03:09 40.80485 -111.91411 8122 ft 115 kts 359°
2026-04-22 03:09 40.81275 -111.91339 8130 ft 114 kts 357°
2026-04-22 03:09 40.82066 -111.91310 8140 ft 115 kts 358°
2026-04-22 03:09 40.82879 -111.91240 8161 ft 115 kts 358°
2026-04-22 03:10 40.83664 -111.91197 8141 ft 115 kts 356°
2026-04-22 03:10 40.84465 -111.91143 8119 ft 114 kts 358°
2026-04-22 03:10 40.85249 -111.91070 8112 ft 114 kts 358°
2026-04-22 03:10 40.86068 -111.90990 8010 ft 121 kts 359°
2026-04-22 03:11 40.86888 -111.90916 8016 ft 115 kts 359°
2026-04-22 03:11 40.87672 -111.90824 8046 ft 109 kts 358°
2026-04-22 03:11 40.88440 -111.90752 7997 ft 113 kts 359°
2026-04-22 03:11 40.89220 -111.90700 7963 ft 111 kts 356°
2026-04-22 03:12 40.89995 -111.90677 7951 ft 111 kts 353°
2026-04-22 03:12 40.91535 -111.90757 7876 ft 112 kts 348°
2026-04-22 03:12 40.92308 -111.90845 7850 ft 109 kts 347°
2026-04-22 03:13 40.93053 -111.90940 7872 ft 106 kts 347°
2026-04-22 03:13 40.93803 -111.91043 7830 ft 110 kts 345°
2026-04-22 03:13 40.94563 -111.91161 7830 ft 110 kts 344°
2026-04-22 03:13 40.95321 -111.91301 7812 ft 109 kts 344°
2026-04-22 03:14 40.96053 -111.91447 7864 ft 104 kts 342°
2026-04-22 03:14 40.96738 -111.91599 7942 ft 99 kts 341°
2026-04-22 03:14 40.97447 -111.91757 7909 ft 107 kts 340°
2026-04-22 03:14 40.98199 -111.91964 7838 ft 114 kts 338°
2026-04-22 03:15 40.99000 -111.92208 7778 ft 111 kts 337°
2026-04-22 03:15 40.99693 -111.92422 7834 ft 106 kts 335°
2026-04-22 03:15 41.00359 -111.92667 7957 ft 96 kts 331°
2026-04-22 03:15 41.01037 -111.92926 7980 ft 106 kts 333°
2026-04-22 03:16 41.01730 -111.93223 8058 ft 102 kts 328°
2026-04-22 03:16 41.02395 -111.93571 8131 ft 102 kts 322°
2026-04-22 03:16 41.03020 -111.93999 8203 ft 102 kts 317°
2026-04-22 03:16 41.03648 -111.94480 8235 ft 105 kts 316°
2026-04-22 03:17 41.04281 -111.95002 8265 ft 103 kts 315°
2026-04-22 03:17 41.04884 -111.95526 8219 ft 105 kts 312°
2026-04-22 03:17 41.05499 -111.96086 8149 ft 109 kts 312°
2026-04-22 03:17 41.06113 -111.96653 8094 ft 108 kts 312°
2026-04-22 03:18 41.06726 -111.97203 8125 ft 102 kts 312°
2026-04-22 03:18 41.07299 -111.97762 8112 ft 104 kts 308°
2026-04-22 03:18 41.07854 -111.98394 8078 ft 105 kts 306°
2026-04-22 03:18 41.08418 -111.98962 8018 ft 103 kts 311°
2026-04-22 03:19 41.09005 -111.99487 7815 ft 103 kts 315°
2026-04-22 03:19 41.09602 -112.00022 7589 ft 103 kts 313°
2026-04-22 03:19 41.10193 -112.00573 7364 ft 106 kts 314°
2026-04-22 03:19 41.10795 -112.01122 7165 ft 104 kts 315°
2026-04-22 03:20 41.11421 -112.01635 6914 ft 107 kts 320°
2026-04-22 03:20 41.12085 -112.02097 6662 ft 109 kts 323°
2026-04-22 03:20 41.12804 -112.02423 6363 ft 112 kts 345°
2026-04-22 03:20 41.13560 -112.02582 6030 ft 107 kts 352°
2026-04-22 03:21 41.14297 -112.02658 5760 ft 103 kts 354°
2026-04-22 03:21 41.14967 -112.02718 5552 ft 86 kts 356°
2026-04-22 03:21 41.15570 -112.02768 5473 ft 87 kts 351°
2026-04-22 03:21 41.16156 -112.02817 5394 ft 80 kts 355°
2026-04-22 03:22 41.16723 -112.02821 5377 ft 85 kts 353°
2026-04-22 03:22 41.17327 -112.02842 5382 ft 86 kts 352°
2026-04-22 03:22 41.17924 -112.02924 5461 ft 88 kts 345°
2026-04-22 03:22 41.18546 -112.03094 5512 ft 90 kts 343°
2026-04-22 03:23 41.19156 -112.03269 5547 ft 97 kts 345°
2026-04-22 03:23 41.19827 -112.03406 5507 ft 102 kts 346°
2026-04-22 03:23 41.20522 -112.03553 5548 ft 98 kts 348°
2026-04-22 03:23 41.21199 -112.03725 5588 ft 96 kts 347°
2026-04-22 03:24 41.21842 -112.03886 5564 ft 97 kts 343°
2026-04-22 03:24 41.22501 -112.03975 5607 ft 89 kts 12°
2026-04-22 03:24 41.22972 -112.03543 5616 ft 83 kts 69°
2026-04-22 03:24 41.23195 -112.02782 5447 ft 92 kts 87°
2026-04-22 03:25 41.23130 -112.02088 5442 ft 69 kts 135°
2026-04-22 03:25 41.22743 -112.01699 5211 ft 68 kts 161°
2026-04-22 03:25 41.22310 -112.01529 4983 ft 64 kts 169°
2026-04-22 03:25 41.21873 -112.01510 4857 ft 61 kts 179°
2026-04-22 03:26 41.21458 -112.01512 4805 ft 63 kts 169°
2026-04-22 03:26 41.21010 -112.01500 4724 ft 63 kts 174°
2026-04-22 03:26 41.20600 -112.01494 4594 ft 57 kts 177°
2026-04-22 03:26 41.20221 -112.01499 4511 ft 53 kts 177°
2026-04-22 03:27 41.19886 -112.01501 4441 ft 39 kts 176°
2026-04-22 03:27 41.19682 -112.01490 4444 ft 24 kts 180°
2026-04-22 03:27 41.19532 -112.01486 4445 ft 22 kts 182°
2026-04-22 03:27 41.19369 -112.01494 4445 ft 24 kts 178°
2026-04-22 03:28 41.19221 -112.01490 4446 ft 21 kts 179°
2026-04-22 03:28 41.19088 -112.01466 4447 ft 17 kts 112°
2026-04-22 03:28 41.19121 -112.01341 4449 ft 15 kts 86°
2026-04-22 03:28 41.19132 -112.01284 4449 ft 0 kts 34°